LU8AQL-WX Weather Reports


time (UTC)temp
C
wind
direction
speed
KPH
gust
KPH
rain 1hr
cm
rain 24hr
cm
rain mn
cm
humidity
%
barometer
mb
20260507235920 12 270 16.1 0.0 0.00 0.00 0.00 81 1002.0
20260507234919 12 270 16.1 0.0 0.00 0.00 0.00 82 1002.0
20260507233918 12 270 16.1 0.0 0.00 0.00 0.00 83 1002.0
20260507232917 12 270 16.1 0.0 0.00 0.00 0.00 83 1001.0
20260507231916 12 270 16.1 0.0 0.00 0.00 0.00 83 1001.0
20260507230914 12 270 16.1 0.0 0.00 0.00 0.00 84 1001.0
20260507225913 12 270 16.1 0.0 0.00 0.00 0.00 83 1001.0
20260507224912 12 270 16.1 0.0 0.00 0.00 0.00 82 1001.0
20260507223911 12 270 16.1 0.0 0.00 0.00 0.00 80 1001.0
20260507222910 12 270 16.1 0.0 0.00 0.00 0.00 79 1000.0
20260507221909 13 270 16.1 0.0 0.00 0.00 0.00 77 1000.0
20260507220908 13 270 16.1 0.0 0.00 0.00 0.00 77 1000.0
20260507215907 13 270 16.1 0.0 0.00 0.00 0.00 75 1000.0
20260507214907 13 270 16.1 0.0 0.00 0.00 0.00 74 1000.0
20260507213906 13 270 16.1 0.0 0.00 0.00 0.00 74 1000.0
20260507212905 13 270 16.1 0.0 0.00 0.00 0.00 74 999.0
20260507211903 13 270 16.1 0.0 0.00 0.00 0.00 73 999.0
20260507210903 13 270 16.1 0.0 0.00 0.00 0.00 74 999.0
20260507205902 13 260 14.5 38.6 0.00 0.00 0.00 72 999.0
20260507204901 13 260 14.5 38.6 0.00 0.00 0.00 72 999.0
20260507203859 14 260 14.5 38.6 0.00 0.00 0.00 71 999.0
20260507202858 14 260 14.5 38.6 0.00 0.00 0.00 70 1001.0
20260507201858 14 260 14.5 38.6 0.00 0.00 0.00 70 1001.0
20260507200856 14 260 14.5 38.6 0.00 0.00 0.00 70 1001.0
20260507195855 14 260 16.1 41.8 0.00 0.00 0.00 70 1001.0
20260507194854 14 260 16.1 41.8 0.00 0.00 0.00 70 1001.0
20260507193853 15 260 16.1 41.8 0.00 0.00 0.00 70 1001.0
20260507192852 15 260 16.1 41.8 0.00 0.00 0.00 70 998.0
20260507191852 15 260 16.1 41.8 0.00 0.00 0.00 70 998.0
20260507190851 15 260 16.1 41.8 0.00 0.00 0.00 70 998.0
20260507185850 15 280 12.9 0.0 0.00 0.00 0.00 72 998.0
20260507184849 15 280 12.9 0.0 0.00 0.00 0.00 72 998.0
20260507183848 15 280 12.9 0.0 0.00 0.00 0.00 73 998.0
20260507182847 15 280 12.9 0.0 0.00 0.00 0.00 73 1001.0
20260507181846 15 280 12.9 0.0 0.00 0.00 0.00 73 1001.0
20260507180845 14 280 12.9 0.0 0.00 0.00 0.00 74 1002.0
20260507175844 14 0 8.0 0.0 0.00 0.00 0.00 74 1002.0
20260507174843 14 0 8.0 0.0 0.00 0.00 0.00 74 1002.0
20260507173842 14 0 8.0 0.0 0.00 0.00 0.00 74 1002.0
20260507172841 14 0 8.0 0.0 0.00 0.00 0.00 74 1003.0
20260507171840 14 0 8.0 0.0 0.00 0.00 0.00 74 1003.0
20260507170839 14 0 8.0 0.0 0.00 0.00 0.00 74 1003.0
20260507165838 15 250 8.0 0.0 0.00 0.00 0.00 75 1003.0
20260507164837 15 250 8.0 0.0 0.00 0.00 0.00 76 1003.0
20260507163834 15 250 8.0 0.0 0.00 0.00 0.00 77 1003.0
20260507162834 15 250 8.0 0.0 0.00 0.00 0.00 77 1002.0
20260507161833 15 250 8.0 0.0 0.00 0.00 0.00 78 1002.0
20260507160832 15 250 8.0 0.0 0.00 0.00 0.00 79 1002.0
20260507155831 15 260 8.0 0.0 0.00 0.00 0.00 80 1002.0
20260507154830 15 260 8.0 0.0 0.00 0.00 0.00 81 1002.0
20260507153829 15 260 8.0 0.0 0.00 0.00 0.00 81 1002.0
20260507152828 15 260 8.0 0.0 0.00 0.00 0.00 81 1002.0
20260507151827 16 260 8.0 0.0 0.00 0.00 0.00 81 1002.0
20260507150826 16 260 8.0 0.0 0.00 0.00 0.00 82 1002.0
20260507145825 16 220 6.4 0.0 0.00 0.00 0.00 83 1002.0
20260507144824 16 220 6.4 0.0 0.00 0.00 0.00 84 1002.0
20260507143823 16 220 6.4 0.0 0.00 0.00 0.00 84 1002.0
20260507142823 16 220 6.4 0.0 0.00 0.00 0.00 84 1001.0
20260507141821 16 220 6.4 0.0 0.00 0.00 0.00 84 1001.0
20260507140820 16 220 6.4 0.0 0.00 0.00 0.00 84 1001.0
20260507135819 16 260 6.4 0.0 0.00 0.00 0.00 82 1001.0
20260507134819 16 260 6.4 0.0 0.00 0.00 0.00 83 1001.0
20260507133817 16 260 6.4 0.0 0.00 0.00 0.00 83 1001.0
20260507132817 16 260 6.4 0.0 0.00 0.00 0.00 84 1002.0
20260507131816 16 260 6.4 0.0 0.00 0.00 0.00 84 1002.0
20260507125814 16 0 6.4 0.0 0.00 0.00 0.00 86 1002.0
20260507124812 16 0 6.4 0.0 0.00 0.00 0.00 86 1002.0
20260507123811 16 0 6.4 0.0 0.00 0.00 0.00 87 1002.0
20260507122811 16 0 6.4 0.0 0.00 0.00 0.00 87 1001.0
20260507121810 16 0 6.4 0.0 0.00 0.00 0.00 87 1003.0
20260507120809 16 0 6.4 0.0 0.00 0.00 0.00 88 1003.0
20260507115808 16 230 6.4 0.0 0.00 0.00 0.00 90 1003.0
20260507114807 16 230 6.4 0.0 0.00 0.00 0.00 90 1003.0
20260507113806 16 230 6.4 0.0 0.00 0.00 0.00 90 1003.0
20260507112806 16 230 6.4 0.0 0.00 0.00 0.00 91 1001.0
20260507111805 16 230 6.4 0.0 0.00 0.00 0.00 92 1001.0
20260507110804 16 230 6.4 0.0 0.00 0.00 0.00 93 1001.0
20260507105803 16 0 6.4 0.0 0.00 0.00 0.00 95 1001.0
20260507104802 16 0 6.4 0.0 0.00 0.00 0.00 96 1001.0
20260507103802 16 0 6.4 0.0 0.00 0.00 0.00 96 1001.0
20260507102800 16 0 6.4 0.0 0.00 0.00 0.00 96 1001.0
20260507101758 16 0 6.4 0.0 0.00 0.00 0.00 95 1001.0
20260507100758 17 0 4.8 0.0 0.00 0.00 0.00 92 1001.0
20260507095757 17 0 4.8 0.0 0.00 0.00 0.00 92 1001.0
20260507094756 17 0 4.8 0.0 0.00 0.00 0.00 92 1001.0
20260507093754 17 0 4.8 0.0 0.00 0.00 0.00 92 1001.0
20260507092754 17 0 4.8 0.0 0.00 0.00 0.00 92 1000.0
20260507091753 17 0 4.8 0.0 0.00 0.00 0.00 93 1000.0
20260507090752 17 0 4.8 0.0 0.00 0.00 0.00 94 1000.0
20260507085751 17 110 16.1 0.0 0.00 0.00 0.00 95 1000.0
20260507084750 17 110 16.1 0.0 0.00 0.00 0.00 95 1000.0
20260507083749 17 110 16.1 0.0 0.00 0.00 0.00 95 1000.0
20260507082748 17 110 16.1 0.0 0.00 0.00 0.00 95 1000.0
20260507081747 17 110 16.1 0.0 0.00 0.00 0.00 94 1000.0
20260507080747 17 100 19.3 0.0 0.03 0.00 0.00 92 1000.0
20260507075746 17 100 19.3 0.0 0.00 0.00 0.00 92 1000.0
20260507074745 17 100 19.3 0.0 0.00 0.00 0.00 92 1000.0
20260507073744 17 100 19.3 0.0 0.00 0.00 0.00 92 1000.0
20260507072743 17 100 19.3 0.0 0.00 0.00 0.00 93 1000.0
20260507071742 17 100 19.3 0.0 0.00 0.00 0.00 94 1000.0
20260507070741 17 100 19.3 0.0 0.00 0.00 0.00 95 1000.0
20260507065740 17 260 9.7 0.0 0.03 0.00 0.00 97 1000.0
20260507064739 17 260 9.7 0.0 0.00 0.00 0.00 97 1000.0
20260507063738 17 260 9.7 0.0 0.03 0.00 0.00 97 1000.0
20260507062737 17 260 9.7 0.0 0.03 0.00 0.00 97 1001.0
20260507061737 17 260 9.7 0.0 0.00 0.00 0.00 97 1001.0
20260507060735 17 140 4.8 0.0 0.03 0.00 0.00 97 1001.0
20260507055734 17 140 4.8 0.0 0.03 0.00 0.00 97 1001.0
20260507054734 17 140 4.8 0.0 0.00 0.00 0.00 97 1001.0
20260507053733 17 140 4.8 0.0 0.08 0.00 0.00 97 1001.0
20260507052732 17 140 4.8 0.0 0.08 0.00 0.00 97 1001.0
20260507051731 17 140 4.8 0.0 0.00 0.00 0.00 97 1001.0
20260507050730 17 140 4.8 0.0 0.00 0.00 0.00 97 1001.0
20260507045728 17 190 12.9 0.0 0.23 0.00 0.00 98 1001.0
20260507044728 18 230 9.7 0.0 0.25 0.00 0.00 97 1001.0
20260507043727 18 210 12.9 0.0 0.15 0.00 0.00 94 1001.0
20260507042726 19 190 17.7 0.0 0.05 0.00 0.00 91 1001.0
20260507041725 20 190 17.7 0.0 0.15 0.00 0.00 88 1001.0
20260507040724 21 0 6.4 0.0 0.13 0.00 0.00 85 1001.0
20260507035723 22 340 9.7 0.0 0.03 0.00 0.00 86 1002.0
20260507034722 22 340 9.7 0.0 0.00 0.00 0.00 86 1001.0
20260507033721 22 340 9.7 0.0 0.00 0.00 0.00 87 1001.0
20260507032720 22 340 9.7 0.0 0.00 0.00 0.00 86 1001.0
20260507031719 22 340 9.7 0.0 0.00 0.00 0.00 86 1001.0
20260507030719 23 330 16.1 0.0 0.00 0.00 0.00 86 1001.0
20260507025718 23 330 16.1 0.0 0.00 0.00 0.00 85 1001.0
20260507024717 23 330 16.1 0.0 0.00 0.00 0.00 85 1001.0
20260507023716 23 330 16.1 0.0 0.00 0.00 0.00 85 1001.0
20260507022715 23 330 16.1 0.0 0.00 0.00 0.00 85 1001.0
20260507021714 23 330 16.1 0.0 0.00 0.00 0.00 85 1001.0
20260507020713 23 330 14.5 0.0 0.00 0.00 0.00 85 1002.0
20260507015712 23 330 14.5 0.0 0.00 0.00 0.00 85 1002.0
20260507014711 23 330 14.5 0.0 0.00 0.00 0.00 84 1002.0
20260507013710 23 330 14.5 0.0 0.00 0.00 0.00 84 1002.0
20260507012709 22 330 14.5 0.0 0.00 0.00 0.00 85 1002.0
20260507011708 22 330 14.5 0.0 0.00 0.00 0.00 87 1002.0
20260507010707 22 330 14.5 0.0 0.00 0.00 0.00 87 1002.0
20260507005706 22 340 12.9 0.0 0.00 0.00 0.00 86 1002.0
20260507004705 22 340 12.9 0.0 0.00 0.00 0.00 87 1002.0
20260507003704 22 340 12.9 0.0 0.00 0.00 0.00 86 1002.0
20260507002703 22 340 12.9 0.0 0.00 0.00 0.00 85 1003.0
20260507001702 22 340 12.9 0.0 0.00 0.00 0.00 85 1003.0
20260507000701 22 360 17.7 0.0 0.00 0.00 0.00 90 1003.0